User: anonymous   Login
Location: Unspecified
(0.0000°N, 0.0000°E)
Time: 00:06:16
(UTC+00:00)
Language:

Feng Yun 1-A - Orbit

View from above orbital plane
View from above orbital plane
View from above satellite
View from above satellite

Ground track
Ground track

The orbit data is extracted from the following two-line orbital elements,

1 19467U 88080A   18203.57333775 -.00000200 +00000-0 -99079-4 0  9997
2 19467 099.2127 188.0403 0015081 039.6711 320.5555 14.03072333529068
Epoch (UTC): 22 July 2018 13:45:36
Eccentricity: 0.0015081
inclination: 99.2127°
perigee height: 872 km
apogee height: 894 km
right ascension of ascending node: 188.0403°
argument of perigee: 39.6711°
revolutions per day: 14.03072333
mean anomaly at epoch: 320.5555°
orbit number at epoch: 52906

The dashed part of the orbit path shows where the satellite is in the earth's shadow,  

DLR